Vertical_Velocity
-3 -5 -4 -4 -6 2 7 -3 -17 -7 -3 6 -9 -18 -11 2 -2 1 1 -2 -3 2 -1 0 -2 -4 -5 -3 -9 2 -2 -3 1 4 -7 -1 4 3 9 9 -17 -19 -7 1
-4 -6 -7 -2 -5 -10 -9 -0 8 -0 -6 -25 -5 -1 -3 -10 -6 -8 -3 -2 -2 2 4 -11 -5 2 -4 -2 -3 -6 -2 -0 -4 4 11 23 8 6 -1 -16 25 -3 17 -0
-5 -7 -6 -5 -2 -5 1 -4 -3 0 -6 -7 -7 -3 -0 -3 -6 0 6 0 3 -4 7 8 -5 4 -2 6 -1 -5 4 2 0 7 5 7 -4 -2 5 -5 11 2 -25 17
-3 -4 -5 -5 -3 -5 -9 -12 3 -4 -15 -3 -5 -3 1 -6 -7 1 -6 7 1 -5 -5 10 -3 3 2 10 1 2 0 -8 6 6 14 6 22 2 2 -10 -26 14 11 24
-1 -4 -4 -1 -3 1 5 -3 -17 1 1 0 -1 -3 -2 -0 6 -12 6 3 5 4 -1 -3 0 0 5 2 5 -5 -8 -7 4 -5 -1 17 -17 -7 1 8 7 11 6 -1
-1 -3 -2 -6 -6 -6 -9 -5 12 6 -9 -3 -2 -3 -10 -5 -3 2 -12 -8 0 9 3 1 0 6 2 -4 -6 -2 -8 0 -1 -0 18 7 3 12 17 9 -0 1 -2 -5
-3 -5 -4 -3 -2 -4 -5 -7 0 1 0 -6 -7 2 -3 -4 -8 -11 -8 2 2 -1 0 -2 3 3 12 2 0 -1 -1 2 6 8 15 2 -2 -2 -5 4 -8 1 0 -1
-1 -2 -1 -3 -0 -0 -4 -3 -4 -6 1 4 3 1 1 2 1 -5 -1 2 -3 2 4 4 -0 0 11 5 -1 -2 6 4 2 1 1 4 -4 -1 -1 -2 5 0 -1 -3
0 -2 -2 -3 -3 -4 -1 -1 2 5 -4 -0 -3 0 -4 -1 -0 2 1 3 -1 -0 -10 -0 -3 1 2 2 8 4 1 7 7 1 1 -1 -2 4 4 6 1 2 2 -0
1 -1 -0 -4 -3 -0 -2 -7 -1 2 4 7 3 -5 -4 -5 0 -3 -5 -4 5 -0 4 -2 -3 -4 -0 -4 2 -0 6 6 10 4 7 4 -2 -2 0 5 -2 -8 -8 -7
-3 -5 -3 -2 -4 -2 0 -3 -4 -5 8 1 1 0 -0 -2 -4 -2 -3 0 2 6 3 0 -4 -5 -5 -3 1 -0 3 7 7 12 2 2 -2 6 4 5 1 4 2 -6
-3 0 1 -0 -1 -4 -0 1 4 2 -8 -0 -1 1 -0 -2 -0 -0 3 -4 -5 -12 -8 -2 -2 -0 -3 -3 -1 -1 2 3 4 -0 4 4 1 -1 -3 3 7 0 2 -2
-2 -2 -1 -3 2 0 -5 -3 1 3 -5 -5 -1 -2 0 -1 -1 -1 -3 2 -0 -1 -3 -4 -0 -1 -2 -4 0 6 2 -1 -2 0 0 1 5 -2 -0 -1 2 3 7 6
1 -2 -4 -1 -1 2 2 -5 -0 -1 1 -6 3 -2 -0 -1 -0 -0 -1 -1 -3 -2 -1 -1 -2 -0 4 0 -2 1 0 -0 -7 -5 -2 -1 1 3 -3 -0 4 5 3 4
-1 -4 -6 -8 -4 -4 1 -2 2 -2 1 4 -2 -3 -3 -2 -2 -2 -1 -3 -3 -3 -1 -0 -3 -1 1 0 1 2 1 5 4 -0 -3 -2 -0 -1 0 -2 -3 3 4 2
-1 2 1 0 -0 1 -1 5 -1 -3 1 3 4 3 -9 -8 -9 -9 -5 -2 -1 1 -2 -4 1 -2 -3 -0 1 -0 5 2 1 4 -4 -7 -1 -0 -4 -2 -4 -6 -3 1
0 -2 2 -0 2 1 -6 -1 -0 0 -2 -1 0 7 3 2 1 -1 -3 -3 -3 -1 -3 -4 -5 -2 -3 -0 -1 -0 -1 -1 -2 0 0 -4 -6 -2 0 -2 -5 -1 -5 -3
-1 -6 0 -2 -3 -2 -3 -2 -3 -3 -1 0 -5 0 7 2 4 3 0 -2 -1 1 -0 -1 -3 -1 -2 -0 -1 -2 -0 -1 2 1 1 -1 -1 -5 -6 1 1 0 -3 -1
1 -0 -3 -1 2 5 4 2 -1 -1 -1 -2 -0 -2 1 2 -0 1 -1 4 -0 1 -0 -1 0 0 -1 -2 1 2 -0 -2 -1 -1 -0 1 3 4 1 -9 -5 1 0 -2
-5 1 -2 2 -2 -1 0 -2 -2 2 5 1 -1 2 -1 -0 2 0 -0 -1 -2 -4 -1 -3 -1 -1 -1 -0 -2 -1 2 1 0 1 1 -1 -3 -1 2 3 -1 -1 -3 7
2 -2 4 2 -7 -4 -1 -1 1 -6 -4 -1 -5 0 -2 2 -1 1 2 -5 -4 -1 -0 -2 0 1 -1 1 1 -1 0 2 3 3 2 2 2 -0 -3 -3 -3 -5 -4 -3
0 -6 -1 5 1 -2 -3 -1 -3 -6 -3 -6 -8 -3 1 1 -4 2 -1 1 -1 -2 -1 -1 1 2 1 1 2 3 2 1 0 -0 -1 0 -2 -2 -3 -3 -5 -2 -1 -3
0 1 1 -0 -2 -1 -3 -3 5 -1 0 0 -1 -0 2 -5 1 3 -1 -1 -1 0 2 0 4 -1 6 5 2 3 3 2 2 0 0 -1 0 0 -2 -3 -1 -2 -4 -1
1 -9 -1 9 4 -1 -2 1 1 1 2 -0 -2 1 -4 -2 -3 3 2 0 0 -1 1 1 5 1 8 7 1 0 1 1 1 -0 -1 0 -0 -1 0 -0 -1 0 -1 -1
2 2 -1 1 0 -0 -1 2 1 0 1 0 -1 1 4 3 2 4 1 1 -2 -0 0 4 1 -1 0 -0 6 4 -0 -0 0 -0 -0 -0 -1 -0 -0 1 0 0 0 -1
5 11 5 1 1 3 0 3 2 -0 1 -1 -2 -1 -3 -1 1 3 4 3 3 2 3 2 1 1 1 3 -1 3 3 0 1 0 -0 -1 -1 -1 -1 -1 0 2 1 -0
3 2 0 1 2 2 1 2 2 -1 0 1 -0 -2 -1 -2 -1 -2 0 1 2 3 1 3 2 2 2 2 2 3 1 0 -1 1 1 -0 -1 -0 -1 -1 -2 -2 -0 2
Height
5666 5653 5640 5626 5611 5598 5580 5559 5537 5519 5506 5490 5465 5452 5443 5439 5434 5429 5424 5418 5412 5404 5397 5392 5389 5387 5389 5394 5399 5401 5405 5412 5417 5426 5431 5442 5453 5460 5471 5476 5483 5491 5503 5514
5659 5647 5635 5620 5603 5588 5573 5558 5540 5517 5497 5481 5469 5456 5447 5439 5435 5429 5425 5418 5412 5406 5398 5389 5387 5385 5385 5393 5397 5403 5408 5412 5417 5426 5434 5441 5445 5452 5459 5472 5482 5484 5494 5504
5655 5642 5628 5614 5598 5581 5567 5549 5534 5517 5492 5478 5468 5458 5448 5442 5437 5432 5426 5419 5412 5404 5398 5392 5384 5384 5384 5391 5394 5400 5407 5412 5414 5420 5427 5430 5437 5445 5452 5459 5463 5473 5480 5496
5651 5638 5624 5610 5595 5576 5559 5544 5528 5507 5493 5482 5470 5460 5450 5442 5436 5432 5424 5419 5410 5400 5392 5390 5385 5385 5385 5389 5392 5397 5404 5410 5414 5417 5420 5426 5432 5433 5438 5445 5458 5461 5478 5482
5645 5632 5620 5606 5591 5575 5559 5541 5522 5510 5494 5483 5473 5462 5453 5444 5440 5429 5424 5417 5412 5403 5395 5391 5389 5388 5388 5388 5392 5395 5401 5406 5411 5415 5421 5422 5422 5431 5438 5443 5446 5451 5457 5463
5641 5627 5613 5599 5585 5570 5558 5546 5529 5510 5495 5483 5473 5464 5454 5446 5439 5434 5424 5418 5413 5407 5399 5395 5394 5395 5393 5392 5393 5397 5400 5404 5410 5414 5416 5414 5419 5423 5429 5433 5436 5442 5446 5451
5637 5624 5610 5597 5582 5566 5550 5536 5524 5509 5497 5484 5475 5467 5457 5450 5442 5436 5430 5424 5417 5411 5405 5401 5400 5400 5399 5397 5396 5397 5399 5403 5408 5410 5412 5413 5415 5419 5424 5427 5431 5436 5441 5446
5633 5620 5606 5593 5580 5566 5551 5537 5523 5511 5499 5487 5477 5468 5462 5455 5449 5443 5436 5429 5422 5416 5410 5408 5405 5403 5404 5401 5399 5398 5399 5402 5406 5408 5410 5410 5411 5415 5418 5423 5428 5430 5434 5440
5627 5616 5603 5590 5578 5566 5550 5536 5522 5509 5499 5488 5477 5470 5463 5457 5452 5446 5441 5434 5427 5421 5413 5410 5407 5405 5404 5404 5404 5401 5401 5402 5404 5405 5408 5407 5407 5409 5407 5413 5419 5424 5428 5433
5623 5612 5599 5587 5575 5562 5548 5535 5522 5510 5499 5489 5477 5468 5462 5455 5450 5445 5442 5437 5431 5425 5420 5413 5410 5407 5405 5404 5403 5403 5403 5401 5401 5403 5403 5403 5403 5403 5403 5410 5417 5415 5421 5426
5618 5607 5595 5583 5571 5560 5549 5534 5521 5509 5499 5487 5477 5466 5460 5453 5448 5443 5438 5437 5432 5426 5421 5416 5411 5409 5406 5403 5401 5400 5401 5400 5399 5399 5399 5402 5403 5402 5404 5406 5406 5406 5410 5415
5613 5602 5591 5579 5567 5556 5544 5534 5521 5508 5496 5487 5478 5466 5458 5452 5447 5442 5437 5432 5427 5422 5419 5415 5412 5408 5405 5403 5400 5398 5398 5397 5397 5399 5398 5398 5400 5401 5402 5403 5404 5405 5408 5409
5606 5596 5585 5574 5563 5551 5539 5528 5517 5506 5494 5484 5476 5466 5457 5450 5444 5439 5434 5430 5426 5422 5418 5414 5411 5407 5404 5400 5398 5397 5395 5394 5394 5396 5395 5395 5397 5399 5400 5401 5403 5404 5404 5406
5598 5587 5578 5567 5556 5546 5534 5523 5512 5501 5489 5480 5474 5465 5455 5448 5441 5434 5430 5426 5421 5417 5414 5410 5406 5404 5402 5398 5395 5392 5392 5391 5390 5390 5390 5391 5391 5394 5396 5398 5399 5400 5400 5402
5591 5581 5570 5559 5549 5539 5529 5517 5507 5496 5487 5477 5468 5461 5453 5444 5438 5431 5424 5419 5415 5413 5409 5405 5402 5399 5397 5394 5392 5389 5386 5386 5386 5385 5382 5382 5384 5387 5391 5392 5394 5395 5396 5399
5584 5573 5563 5552 5542 5532 5523 5513 5501 5490 5482 5473 5465 5457 5448 5440 5433 5427 5421 5415 5410 5406 5403 5399 5396 5393 5391 5388 5386 5384 5382 5381 5379 5379 5377 5375 5374 5377 5380 5384 5386 5389 5391 5392
5575 5565 5555 5546 5535 5525 5515 5506 5496 5486 5477 5468 5460 5453 5445 5437 5430 5424 5418 5412 5407 5401 5396 5392 5388 5386 5384 5381 5379 5377 5374 5371 5368 5369 5368 5367 5368 5367 5368 5372 5376 5379 5382 5384
5566 5555 5545 5536 5527 5516 5506 5496 5486 5477 5470 5461 5454 5448 5442 5433 5427 5420 5412 5406 5400 5395 5389 5384 5381 5378 5375 5374 5372 5370 5368 5366 5364 5362 5361 5360 5358 5357 5356 5358 5361 5366 5370 5374
5557 5545 5536 5528 5519 5510 5500 5488 5479 5470 5464 5454 5447 5441 5435 5427 5420 5412 5405 5399 5393 5388 5383 5377 5374 5370 5367 5365 5363 5362 5361 5360 5357 5356 5353 5351 5349 5347 5345 5345 5347 5352 5357 5360
5547 5537 5526 5518 5511 5500 5492 5479 5472 5463 5456 5446 5440 5433 5426 5420 5412 5404 5396 5388 5382 5377 5375 5368 5365 5362 5359 5356 5354 5352 5351 5351 5351 5349 5348 5346 5344 5341 5338 5335 5334 5334 5340 5346
5536 5527 5518 5506 5498 5489 5479 5470 5462 5452 5446 5439 5432 5424 5417 5410 5403 5395 5388 5378 5372 5367 5365 5359 5356 5354 5352 5350 5347 5346 5345 5344 5344 5344 5342 5341 5339 5336 5332 5329 5327 5327 5327 5329
5523 5515 5506 5497 5487 5477 5468 5458 5449 5441 5435 5429 5421 5415 5408 5401 5392 5385 5377 5370 5361 5357 5353 5350 5347 5345 5345 5343 5341 5340 5339 5339 5338 5336 5335 5333 5331 5329 5327 5324 5320 5318 5318 5319
5513 5504 5496 5486 5476 5465 5454 5448 5441 5433 5426 5420 5412 5404 5397 5389 5382 5374 5365 5357 5351 5346 5343 5340 5339 5337 5336 5335 5334 5333 5332 5331 5331 5330 5329 5328 5326 5324 5321 5319 5317 5313 5310 5310
5500 5491 5483 5474 5463 5454 5446 5438 5431 5425 5417 5409 5401 5393 5386 5377 5368 5361 5352 5345 5339 5335 5333 5331 5330 5329 5328 5327 5326 5325 5324 5323 5323 5322 5322 5321 5320 5318 5316 5315 5312 5310 5308 5306
5490 5478 5469 5460 5452 5444 5436 5428 5420 5414 5406 5398 5389 5381 5374 5364 5356 5348 5340 5333 5328 5325 5324 5322 5319 5319 5318 5316 5316 5315 5315 5314 5314 5314 5314 5313 5313 5313 5312 5310 5309 5307 5305 5303
5481 5471 5461 5452 5444 5434 5425 5417 5410 5402 5393 5384 5374 5366 5357 5350 5342 5336 5329 5324 5319 5316 5313 5310 5308 5306 5306 5305 5305 5305 5304 5304 5304 5304 5304 5304 5305 5305 5305 5305 5304 5303 5302 5301
5468 5460 5452 5442 5432 5423 5414 5406 5397 5388 5380 5370 5359 5349 5342 5333 5327 5321 5317 5312 5307 5303 5300 5298 5296 5295 5294 5293 5293 5293 5293 5293 5293 5294 5294 5294 5294 5295 5296 5296 5297 5297 5297 5296